{"data":{"norad_id":52461,"epoch":"2026-05-25T01:09:14.855904Z","epoch_age_seconds":71655,"freshness":"FRESH","line1":"1 52461U 22049L   26145.04808861  .00000079  00000+0  23049-4 0  9995","line2":"2 52461  53.2167  66.3348 0001117  85.5639 274.5481 15.08836007223916","mean_motion":15.08836007,"eccentricity":0.0001117,"inclination_deg":53.2167,"raan_deg":66.3348,"arg_perigee_deg":85.5639,"mean_anomaly_deg":274.5481,"bstar":2.3049e-5,"rev_number":22391,"period_min":95.437807244747,"perigee_km":538.98286539185,"apogee_km":540.52832259734,"semimajor_km":6917.8925939946,"source":"CELESTRAK","updated_at":"2026-05-25T13:38:17.149076Z"}}